CW2931 Weather Reports


Display with metric or nautical units.
time (UTC)temp
F
wind
direction
speed
MPH
gust
MPH
rain 1hr
in
rain 24hr
in
rain mn
in
humidity
%
barometer
mb
20181115085109 32 88 1.0 3.0 0.00 0.00 0.00 78 1027.4
20181115084109 32 28 0.0 3.0 0.00 0.00 0.00 78 1027.8
20181115083110 32 58 1.0 3.0 0.00 0.00 0.00 77 1028.1
20181115082109 32 70 1.0 3.0 0.00 0.00 0.00 77 1028.5
20181115081109 32 65 2.0 5.0 0.00 0.00 0.00 77 1028.8
20181115080115 32 40 2.0 3.0 0.00 0.00 0.00 76 1028.9
20181115075109 32 76 1.0 5.0 0.00 0.00 0.00 76 1029.0
20181115074109 32 98 2.0 3.0 0.00 0.00 0.00 76 1028.9
20181115073109 32 100 1.0 6.0 0.00 0.00 0.00 76 1029.1
20181115072109 31 57 2.0 5.0 0.00 0.00 0.00 76 1029.4
20181115071109 31 23 2.0 3.0 0.00 0.00 0.00 76 1029.7
20181115070115 31 59 1.0 3.0 0.00 0.00 0.00 75 1030.0
20181115065109 31 62 3.0 7.0 0.00 0.00 0.00 75 1029.5
20181115064109 30 38 2.0 3.0 0.00 0.00 0.00 74 1029.9
20181115063109 30 101 1.0 3.0 0.00 0.00 0.00 73 1030.0
20181115062110 30 83 1.0 3.0 0.00 0.00 0.00 72 1030.1
20181115061109 30 83 1.0 3.0 0.00 0.00 0.00 72 1030.1
20181115060115 30 102 1.0 3.0 0.00 0.00 0.00 72 1030.5
20181115055109 30 60 2.0 3.0 0.00 0.00 0.00 71 1030.7
20181115054109 30 26 1.0 3.0 0.00 0.00 0.00 71 1031.0
20181115053109 30 23 2.0 3.0 0.00 0.00 0.00 71 1031.2
20181115052109 30 69 1.0 3.0 0.00 0.00 0.00 71 1031.3
20181115051109 30 52 2.0 7.0 0.00 0.00 0.00 72 1031.4
20181115050116 30 72 1.0 3.0 0.00 0.00 0.00 72 1031.2
20181115045109 29 55 2.0 5.0 0.00 0.00 0.00 72 1031.2
20181115044109 29 53 1.0 5.0 0.00 0.00 0.00 71 1031.4
20181115043109 29 56 1.0 3.0 0.00 0.00 0.00 71 1031.7
20181115042110 30 48 2.0 3.0 0.00 0.00 0.00 71 1032.0
20181115041110 30 86 2.0 3.0 0.00 0.00 0.00 71 1032.3
20181115040115 30 98 1.0 3.0 0.00 0.00 0.00 70 1032.6
20181115035109 30 107 1.0 3.0 0.00 0.00 0.00 70 1032.7
20181115034109 30 103 1.0 3.0 0.00 0.00 0.00 70 1032.7
20181115033109 30 97 1.0 7.0 0.00 0.00 0.00 69 1032.7
20181115032110 30 137 2.0 5.0 0.00 0.00 0.00 68 1032.8
20181115031109 30 111 1.0 5.0 0.00 0.00 0.00 68 1033.3
20181115030115 30 98 2.0 5.0 0.00 0.00 0.00 68 1032.8
20181115025110 30 115 1.0 6.0 0.00 0.00 0.00 67 1033.1
20181115024110 30 111 3.0 6.0 0.00 0.00 0.00 68 1033.2
20181115023109 29 86 2.0 3.0 0.00 0.00 0.00 68 1033.2
20181115022109 29 83 1.0 3.0 0.00 0.00 0.00 69 1032.9
20181115021109 29 30 2.0 3.0 0.00 0.00 0.00 69 1033.3
20181115020115 29 146 1.0 5.0 0.00 0.00 0.00 70 1033.3
20181115015110 29 118 2.0 3.0 0.00 0.00 0.00 71 1033.8
20181115014109 29 104 1.0 5.0 0.00 0.00 0.00 71 1033.7
20181115013110 29 115 1.0 2.0 0.00 0.00 0.00 72 1034.0
20181115012110 29 115 1.0 2.0 0.00 0.00 0.00 72 1033.8
20181115011109 30 115 0.0 2.0 0.00 0.00 0.00 71 1034.4
20181115010115 30 115 0.0 3.0 0.00 0.00 0.00 71 1034.4
20181115005109 30 21 0.0 3.0 0.00 0.00 0.00 71 1034.6
20181115004109 30 19 1.0 3.0 0.00 0.00 0.00 71 1034.1
20181115003109 30 121 1.0 3.0 0.00 0.00 0.00 71 1034.5
20181115002109 30 98 1.0 3.0 0.00 0.00 0.00 71 1034.7
20181115001109 30 113 3.0 5.0 0.00 0.00 0.00 71 1034.7
20181115000116 30 94 2.0 7.0 0.00 0.00 0.00 71 1034.7
20181114235109 30 46 2.0 3.0 0.00 0.00 0.00 71 1034.5
20181114234109 30 117 1.0 3.0 0.00 0.00 0.00 71 1034.5
20181114233110 30 111 1.0 3.0 0.00 0.00 0.00 71 1034.7
20181114232110 31 86 2.0 5.0 0.00 0.00 0.00 70 1034.6
20181114231109 31 104 1.0 3.0 0.00 0.00 0.00 71 1034.4
20181114230117 31 142 0.0 3.0 0.00 0.00 0.00 70 1034.4
20181114225110 31 142 0.0 2.0 0.00 0.00 0.00 68 1034.8
20181114224111 31 123 1.0 3.0 0.00 0.00 0.00 68 1034.6
20181114223112 31 171 1.0 2.0 0.00 0.00 0.00 67 1034.6
20181114222111 32 171 0.0 2.0 0.00 0.00 0.00 67 1034.4
20181114221111 32 171 1.0 3.0 0.00 0.00 0.00 66 1034.4
20181114220125 32 171 1.0 3.0 0.00 0.00 0.00 66 1034.2
20181114215111 32 169 1.0 6.0 0.00 0.00 0.00 65 1034.3
20181114214111 33 149 2.0 5.0 0.00 0.00 0.00 64 1034.3
20181114213111 33 155 1.0 5.0 0.00 0.00 0.00 60 1034.4
20181114212111 34 139 2.0 3.0 0.00 0.00 0.00 57 1034.4
20181114211112 34 166 2.0 3.0 0.00 0.00 0.00 53 1034.6
20181114210126 34 175 0.0 2.0 0.00 0.00 0.00 53 1033.9
20181114205112 34 175 1.0 3.0 0.00 0.00 0.00 54 1034.0
20181114204111 34 158 2.0 3.0 0.00 0.00 0.00 53 1034.0
20181114203111 34 168 2.0 3.0 0.00 0.00 0.00 53 1034.0
20181114202112 34 156 1.0 3.0 0.00 0.00 0.00 53 1034.3
20181114201111 34 131 1.0 3.0 0.00 0.00 0.00 54 1034.0
20181114200125 34 131 1.0 2.0 0.00 0.00 0.00 54 1034.7
20181114195112 34 132 1.0 3.0 0.00 0.00 0.00 53 1034.5
20181114194111 35 152 2.0 3.0 0.00 0.00 0.00 53 1034.8
20181114193111 35 186 2.0 3.0 0.00 0.00 0.00 52 1034.7
20181114192130 35 258 1.0 3.0 0.00 0.00 0.00 54 1034.9
20181114191112 34 171 1.0 5.0 0.00 0.00 0.00 52 1035.3
20181114190126 35 151 2.0 3.0 0.00 0.00 0.00 52 1035.0
20181114185111 36 219 3.0 5.0 0.00 0.00 0.00 51 1035.3
20181114184111 36 223 2.0 6.0 0.00 0.00 0.00 51 1035.4
20181114183111 37 240 2.0 5.0 0.00 0.00 0.00 52 1035.5
20181114182112 37 292 0.0 3.0 0.00 0.00 0.00 53 1035.4
20181114181112 36 19 1.0 3.0 0.00 0.00 0.00 54 1035.4
20181114180126 35 189 2.0 3.0 0.00 0.00 0.00 52 1035.5
20181114175112 36 248 2.0 3.0 0.00 0.00 0.00 54 1035.8
20181114174112 36 124 1.0 3.0 0.00 0.00 0.00 53 1035.6
20181114173129 36 49 1.0 7.0 0.00 0.00 0.00 53 1035.8
20181114172112 37 324 3.0 5.0 0.00 0.00 0.00 55 1035.9
20181114171111 36 255 2.0 5.0 0.00 0.01 0.00 55 1036.1
20181114170126 36 304 3.0 6.0 0.00 0.01 0.00 56 1035.9
20181114165111 36 0 2.0 5.0 0.00 0.01 0.00 57 1035.9
20181114164111 36 355 1.0 6.0 0.00 0.01 0.00 59 1035.9
20181114163111 35 12 2.0 5.0 0.00 0.01 0.00 61 1035.9
20181114162112 35 345 3.0 7.0 0.00 0.01 0.00 59 1035.8
20181114161111 34 333 3.0 5.0 0.00 0.01 0.00 60 1035.8
20181114160125 34 253 2.0 6.0 0.00 0.01 0.00 62 1035.9
20181114155111 34 198 2.0 5.0 0.00 0.01 0.00 62 1035.9
20181114154111 33 312 3.0 6.0 0.00 0.01 0.00 63 1035.9
20181114153111 33 20 2.0 6.0 0.00 0.01 0.00 65 1035.9
20181114152112 32 324 2.0 3.0 0.00 0.01 0.00 67 1035.9
20181114151112 32 331 2.0 6.0 0.00 0.01 0.00 70 1035.4
20181114150126 31 300 2.0 3.0 0.00 0.02 0.00 72 1035.2
20181114145111 30 354 2.0 3.0 0.00 0.03 0.00 74 1035.4
20181114144112 29 248 1.0 5.0 0.00 0.03 0.00 75 1035.5
20181114143111 28 286 2.0 3.0 0.00 0.04 0.00 77 1035.6
20181114142111 27 261 2.0 3.0 0.00 0.04 0.00 79 1035.8
20181114141111 26 228 2.0 3.0 0.00 0.04 0.00 81 1035.9
20181114140126 25 221 2.0 3.0 0.00 0.04 0.00 82 1035.5
20181114135111 24 218 2.0 3.0 0.00 0.04 0.00 84 1035.4
20181114134111 22 260 1.0 3.0 0.00 0.04 0.00 84 1035.4
20181114133111 22 286 2.0 3.0 0.00 0.04 0.00 84 1035.4
20181114132112 21 300 0.0 2.0 0.00 0.04 0.00 85 1035.4
20181114131111 20 300 0.0 1.0 0.00 0.04 0.00 85 1035.3
20181114130125 20 300 1.0 3.0 0.00 0.04 0.00 84 1035.2
20181114125111 20 300 0.0 0.0 0.00 0.04 0.00 84 1034.8
20181114124112 19 300 0.0 0.0 0.00 0.04 0.00 83 1034.6
20181114123111 19 300 0.0 0.0 0.00 0.04 0.00 83 1034.4
20181114122111 19 300 0.0 0.0 0.00 0.04 0.00 83 1034.2
20181114121111 20 300 0.0 0.0 0.00 0.04 0.00 83 1034.0
20181114120126 20 300 0.0 0.0 0.00 0.04 0.00 82 1034.1
20181114115111 20 300 0.0 0.0 0.00 0.04 0.00 82 1034.0
20181114114112 20 300 0.0 0.0 0.00 0.04 0.00 81 1034.0
20181114113112 20 300 0.0 0.0 0.00 0.04 0.00 81 1033.8
20181114112112 20 300 0.0 1.0 0.00 0.04 0.00 81 1033.8
20181114111112 20 300 0.0 1.0 0.00 0.04 0.00 80 1033.6
20181114110126 20 300 0.0 0.0 0.00 0.04 0.00 80 1033.3
20181114105111 20 300 0.0 1.0 0.00 0.04 0.00 80 1033.2
20181114104111 20 300 0.0 0.0 0.00 0.04 0.00 79 1033.1
20181114103111 21 300 0.0 0.0 0.00 0.04 0.00 79 1032.9
20181114102112 21 300 0.0 1.0 0.00 0.04 0.00 79 1033.0
20181114101111 21 300 0.0 3.0 0.00 0.04 0.00 79 1032.9
20181114100125 21 300 0.0 0.0 0.00 0.04 0.00 79 1033.1
20181114095112 21 300 1.0 2.0 0.00 0.04 0.00 78 1033.1
20181114094111 21 300 0.0 0.0 0.00 0.04 0.00 78 1033.1
20181114093111 21 300 0.0 0.0 0.00 0.04 0.00 77 1032.7
20181114092112 21 300 0.0 0.0 0.00 0.04 0.00 76 1032.8
20181114091111 21 300 0.0 0.0 0.00 0.04 0.00 76 1032.7
20181114090126 22 300 0.0 1.0 0.00 0.04 0.00 75 1032.6